| time (UTC) | temp C | wind direction | speed KPH | gust KPH | rain 1hr cm | rain 24hr cm | rain mn cm | humidity % | barometer mb |
| 20260506215606 | 20 | 75 | 3.2 | 8.0 | 0.00 | 0.00 | 0.00 | 70 | 1012.8 |
| 20260506215101 | 20 | 103 | 0.0 | 3.2 | 0.00 | 0.00 | 0.00 | 70 | 1012.7 |
| 20260506214558 | 20 | 62 | 3.2 | 6.4 | 0.00 | 0.00 | 0.00 | 70 | 1012.6 |
| 20260506214056 | 20 | 94 | 1.6 | 6.4 | 0.00 | 0.00 | 0.00 | 71 | 1012.6 |
| 20260506213554 | 20 | 39 | 4.8 | 6.4 | 0.00 | 0.00 | 0.00 | 71 | 1012.5 |
| 20260506213051 | 20 | 67 | 1.6 | 4.8 | 0.00 | 0.00 | 0.00 | 70 | 1012.3 |
| 20260506212547 | 20 | 57 | 3.2 | 6.4 | 0.00 | 0.00 | 0.00 | 69 | 1012.5 |
| 20260506212042 | 20 | 39 | 3.2 | 4.8 | 0.00 | 0.00 | 0.00 | 69 | 1012.4 |
| 20260506211538 | 20 | 0 | 1.6 | 4.8 | 0.00 | 0.00 | 0.00 | 69 | 1012.6 |
| 20260506211036 | 20 | 242 | 3.2 | 4.8 | 0.00 | 0.00 | 0.00 | 69 | 1012.6 |
| 20260506210532 | 20 | 36 | 0.0 | 6.4 | 0.00 | 0.00 | 0.00 | 70 | 1012.8 |
| 20260506210029 | 21 | 43 | 3.2 | 6.4 | 0.00 | 0.00 | 0.00 | 68 | 1012.9 |
| 20260506205526 | 22 | 31 | 3.2 | 6.4 | 0.00 | 0.00 | 0.00 | 65 | 1012.8 |
| 20260506205021 | 21 | 314 | 3.2 | 6.4 | 0.00 | 0.00 | 0.00 | 67 | 1012.9 |
| 20260506204519 | 22 | 197 | 3.2 | 6.4 | 0.00 | 0.00 | 0.00 | 66 | 1012.9 |
| 20260506204016 | 22 | 236 | 0.0 | 6.4 | 0.00 | 0.00 | 0.00 | 66 | 1013.0 |
| 20260506203514 | 22 | 149 | 1.6 | 4.8 | 0.00 | 0.00 | 0.00 | 66 | 1012.9 |
| 20260506203010 | 22 | 36 | 3.2 | 8.0 | 0.00 | 0.00 | 0.00 | 66 | 1012.7 |
| 20260506202508 | 23 | 165 | 0.0 | 6.4 | 0.00 | 0.00 | 0.00 | 66 | 1012.8 |
| 20260506202004 | 22 | 109 | 3.2 | 6.4 | 0.00 | 0.00 | 0.00 | 68 | 1012.7 |
| 20260506201502 | 22 | 284 | 0.0 | 4.8 | 0.00 | 0.00 | 0.00 | 67 | 1012.6 |
| 20260506200958 | 22 | 10 | 1.6 | 3.2 | 0.00 | 0.00 | 0.00 | 70 | 1012.6 |
| 20260506200454 | 21 | 130 | 3.2 | 8.0 | 0.00 | 0.00 | 0.00 | 71 | 1012.6 |
| 20260506195951 | 21 | 85 | 0.0 | 6.4 | 0.00 | 0.00 | 0.00 | 72 | 1012.5 |
| 20260506195448 | 21 | 32 | 1.6 | 6.4 | 0.00 | 0.00 | 0.00 | 73 | 1012.5 |
| 20260506194944 | 22 | 42 | 4.8 | 6.4 | 0.00 | 0.00 | 0.00 | 72 | 1012.3 |
| 20260506194442 | 22 | 31 | 0.0 | 4.8 | 0.00 | 0.00 | 0.00 | 71 | 1012.2 |
| 20260506193938 | 22 | 99 | 3.2 | 8.0 | 0.00 | 0.00 | 0.00 | 71 | 1012.3 |
| 20260506193436 | 23 | 189 | 3.2 | 6.4 | 0.00 | 0.00 | 0.00 | 69 | 1012.2 |
| 20260506192932 | 24 | 94 | 0.0 | 4.8 | 0.00 | 0.00 | 0.00 | 69 | 1012.0 |
| 20260506192429 | 25 | 186 | 3.2 | 6.4 | 0.00 | 0.00 | 0.00 | 68 | 1012.0 |
| 20260506191926 | 25 | 47 | 3.2 | 4.8 | 0.00 | 0.00 | 0.00 | 68 | 1012.0 |
| 20260506191422 | 25 | 56 | 0.0 | 3.2 | 0.00 | 0.00 | 0.00 | 69 | 1012.1 |
| 20260506190919 | 25 | 66 | 1.6 | 4.8 | 0.00 | 0.00 | 0.00 | 70 | 1012.3 |
| 20260506190416 | 26 | 118 | 1.6 | 3.2 | 0.00 | 0.00 | 0.00 | 66 | 1012.4 |
| 20260506185913 | 25 | 79 | 0.0 | 6.4 | 0.00 | 0.00 | 0.00 | 68 | 1012.2 |
| 20260506185410 | 26 | 65 | 3.2 | 4.8 | 0.00 | 0.00 | 0.00 | 64 | 1012.4 |
| 20260506184907 | 26 | 161 | 1.6 | 4.8 | 0.00 | 0.00 | 0.00 | 65 | 1012.3 |
| 20260506184404 | 26 | 172 | 0.0 | 3.2 | 0.00 | 0.00 | 0.00 | 64 | 1012.1 |
| 20260506183901 | 27 | 55 | 0.0 | 3.2 | 0.00 | 0.00 | 0.00 | 64 | 1012.1 |
| 20260506183356 | 26 | 150 | 3.2 | 4.8 | 0.00 | 0.00 | 0.00 | 66 | 1012.2 |
| 20260506182854 | 26 | 109 | 3.2 | 3.2 | 0.00 | 0.00 | 0.00 | 65 | 1012.2 |
| 20260506182351 | 25 | 171 | 3.2 | 6.4 | 0.00 | 0.00 | 0.00 | 66 | 1012.1 |
| 20260506181848 | 27 | 94 | 1.6 | 3.2 | 0.00 | 0.00 | 0.00 | 62 | 1012.2 |
| 20260506181346 | 27 | 96 | 3.2 | 3.2 | 0.00 | 0.00 | 0.00 | 60 | 1012.1 |
| 20260506180843 | 27 | 160 | 0.0 | 3.2 | 0.00 | 0.00 | 0.00 | 61 | 1012.0 |
| 20260506180339 | 26 | 72 | 1.6 | 4.8 | 0.00 | 0.00 | 0.00 | 62 | 1012.0 |
| 20260506175835 | 27 | 78 | 1.6 | 3.2 | 0.00 | 0.00 | 0.00 | 61 | 1012.0 |
| 20260506175332 | 26 | 116 | 1.6 | 3.2 | 0.00 | 0.00 | 0.00 | 63 | 1012.1 |
| 20260506174829 | 26 | 73 | 0.0 | 3.2 | 0.00 | 0.00 | 0.00 | 65 | 1011.8 |
| 20260506174327 | 25 | 128 | 3.2 | 4.8 | 0.00 | 0.00 | 0.00 | 65 | 1012.0 |
| 20260506173824 | 25 | 246 | 1.6 | 3.2 | 0.00 | 0.00 | 0.00 | 65 | 1012.1 |
| 20260506173321 | 25 | 83 | 1.6 | 3.2 | 0.00 | 0.00 | 0.00 | 67 | 1012.1 |
| 20260506172818 | 24 | 31 | 1.6 | 3.2 | 0.00 | 0.00 | 0.00 | 68 | 1012.2 |
| 20260506172314 | 23 | 229 | 1.6 | 3.2 | 0.00 | 0.00 | 0.00 | 67 | 1012.3 |
| 20260506171812 | 23 | 81 | 1.6 | 3.2 | 0.00 | 0.00 | 0.00 | 68 | 1012.3 |
| 20260506171309 | 22 | 297 | 3.2 | 6.4 | 0.00 | 0.00 | 0.00 | 71 | 1012.3 |
| 20260506170807 | 22 | 208 | 3.2 | 6.4 | 0.00 | 0.00 | 0.00 | 72 | 1012.1 |
| 20260506170302 | 22 | 86 | 1.6 | 4.8 | 0.00 | 0.00 | 0.00 | 73 | 1012.0 |
| 20260506165802 | 21 | 43 | 3.2 | 3.2 | 0.00 | 0.00 | 0.00 | 76 | 1012.2 |
| 20260506165259 | 20 | 38 | 3.2 | 3.2 | 0.00 | 0.00 | 0.00 | 78 | 1012.3 |
| 20260506164755 | 20 | 15 | 1.6 | 6.4 | 0.00 | 0.00 | 0.00 | 81 | 1012.7 |
| 20260506164252 | 19 | 62 | 3.2 | 4.8 | 0.00 | 0.00 | 0.00 | 83 | 1012.8 |
| 20260506163749 | 18 | 53 | 3.2 | 4.8 | 0.00 | 0.00 | 0.00 | 85 | 1013.0 |
| 20260506163244 | 18 | 15 | 4.8 | 4.8 | 0.00 | 0.00 | 0.00 | 86 | 1013.0 |
| 20260506162740 | 18 | 359 | 3.2 | 4.8 | 0.00 | 0.00 | 0.00 | 86 | 1013.0 |
| 20260506162238 | 18 | 40 | 4.8 | 4.8 | 0.00 | 0.00 | 0.00 | 86 | 1013.6 |
| 20260506161735 | 18 | 345 | 1.6 | 9.7 | 0.00 | 0.00 | 0.00 | 85 | 1013.9 |
| 20260506161232 | 18 | 179 | 12.9 | 14.5 | 0.00 | 0.00 | 0.00 | 85 | 1013.9 |
| 20260506160730 | 19 | 94 | 4.8 | 8.0 | 0.00 | 0.00 | 0.00 | 85 | 1013.6 |
| 20260506160226 | 19 | 8 | 1.6 | 8.0 | 0.00 | 0.00 | 0.00 | 87 | 1013.5 |
| 20260506155725 | 19 | 65 | 3.2 | 6.4 | 0.00 | 0.00 | 0.00 | 88 | 1013.3 |
| 20260506155221 | 19 | 352 | 3.2 | 6.4 | 0.00 | 0.00 | 0.00 | 88 | 1013.5 |
| 20260506153323 | 21 | 54 | 1.6 | 6.4 | 0.00 | 0.00 | 0.00 | 83 | 1012.8 |
| 20260506152820 | 21 | 66 | 1.6 | 4.8 | 0.00 | 0.00 | 0.00 | 83 | 1012.8 |
| 20260506152317 | 23 | 339 | 6.4 | 8.0 | 0.00 | 0.00 | 0.00 | 78 | 1012.7 |
| 20260506151816 | 26 | 69 | 1.6 | 3.2 | 0.00 | 0.00 | 0.00 | 84 | 1011.8 |
| 20260506151312 | 26 | 134 | 0.0 | 3.2 | 0.00 | 0.00 | 0.00 | 84 | 1011.9 |
| 20260506150809 | 26 | 89 | 0.0 | 4.8 | 0.00 | 0.00 | 0.00 | 84 | 1011.8 |
| 20260506150306 | 26 | 76 | 1.6 | 3.2 | 0.00 | 0.00 | 0.00 | 84 | 1011.8 |
| 20260506145803 | 26 | 87 | 1.6 | 3.2 | 0.00 | 0.00 | 0.00 | 84 | 1011.6 |
| 20260506145259 | 26 | 101 | 1.6 | 4.8 | 0.00 | 0.00 | 0.00 | 84 | 1011.3 |
| 20260506144757 | 26 | 98 | 0.0 | 3.2 | 0.00 | 0.00 | 0.00 | 84 | 1011.1 |
| 20260506144254 | 26 | 84 | 1.6 | 3.2 | 0.00 | 0.00 | 0.00 | 84 | 1011.0 |
| 20260506143751 | 26 | 66 | 3.2 | 3.2 | 0.00 | 0.00 | 0.00 | 84 | 1011.0 |
| 20260506143248 | 25 | 89 | 0.0 | 3.2 | 0.00 | 0.00 | 0.00 | 84 | 1010.8 |
| 20260506142747 | 25 | 88 | 1.6 | 3.2 | 0.00 | 0.00 | 0.00 | 85 | 1010.9 |
| 20260506142245 | 25 | 115 | 0.0 | 3.2 | 0.00 | 0.00 | 0.00 | 85 | 1010.7 |
| 20260506141743 | 25 | 58 | 1.6 | 4.8 | 0.00 | 0.00 | 0.00 | 86 | 1010.4 |
| 20260506141241 | 25 | 131 | 0.0 | 3.2 | 0.00 | 0.00 | 0.00 | 86 | 1010.6 |
| 20260506140738 | 25 | 112 | 1.6 | 3.2 | 0.00 | 0.00 | 0.00 | 87 | 1010.9 |
| 20260506140235 | 25 | 84 | 1.6 | 3.2 | 0.00 | 0.00 | 0.00 | 87 | 1011.0 |
| 20260506135731 | 25 | 91 | 1.6 | 3.2 | 0.00 | 0.00 | 0.00 | 87 | 1011.1 |
| 20260506135228 | 25 | 53 | 3.2 | 3.2 | 0.00 | 0.00 | 0.00 | 87 | 1010.8 |
| 20260506134725 | 25 | 92 | 0.0 | 3.2 | 0.00 | 0.00 | 0.00 | 88 | 1010.4 |
| 20260506134221 | 25 | 78 | 1.6 | 3.2 | 0.00 | 0.00 | 0.00 | 89 | 1010.4 |
| 20260506133718 | 25 | 76 | 1.6 | 3.2 | 0.00 | 0.00 | 0.00 | 89 | 1010.5 |
| 20260506133215 | 24 | 109 | 3.2 | 3.2 | 0.00 | 0.00 | 0.00 | 89 | 1010.4 |
| 20260506132712 | 24 | 141 | 1.6 | 3.2 | 0.00 | 0.00 | 0.00 | 89 | 1010.2 |
| 20260506132209 | 24 | 55 | 1.6 | 1.6 | 0.00 | 0.00 | 0.00 | 89 | 1010.1 |
| 20260506131707 | 24 | 75 | 1.6 | 3.2 | 0.00 | 0.00 | 0.00 | 89 | 1010.0 |
| 20260506131202 | 24 | 162 | 1.6 | 3.2 | 0.00 | 0.00 | 0.00 | 89 | 1010.1 |
| 20260506130700 | 24 | 142 | 1.6 | 3.2 | 0.00 | 0.00 | 0.00 | 89 | 1010.1 |
| 20260506130157 | 24 | 63 | 1.6 | 3.2 | 0.00 | 0.00 | 0.00 | 90 | 1010.2 |
| 20260506125655 | 24 | 78 | 1.6 | 3.2 | 0.00 | 0.00 | 0.00 | 90 | 1010.0 |
| 20260506125152 | 24 | 157 | 1.6 | 3.2 | 0.00 | 0.00 | 0.00 | 90 | 1009.9 |
| 20260506124650 | 23 | 83 | 0.0 | 3.2 | 0.00 | 0.00 | 0.00 | 90 | 1009.9 |
| 20260506124148 | 23 | 89 | 0.0 | 3.2 | 0.00 | 0.00 | 0.00 | 91 | 1009.9 |
| 20260506123645 | 23 | 82 | 3.2 | 3.2 | 0.00 | 0.00 | 0.00 | 91 | 1009.8 |
| 20260506123144 | 23 | 101 | 3.2 | 3.2 | 0.00 | 0.00 | 0.00 | 91 | 1009.9 |
| 20260506122640 | 23 | 89 | 3.2 | 3.2 | 0.00 | 0.00 | 0.00 | 91 | 1009.8 |
| 20260506122138 | 23 | 99 | 3.2 | 3.2 | 0.00 | 0.00 | 0.00 | 91 | 1009.8 |
| 20260506121635 | 23 | 85 | 1.6 | 3.2 | 0.00 | 0.00 | 0.00 | 92 | 1009.9 |
| 20260506121131 | 23 | 72 | 1.6 | 3.2 | 0.00 | 0.00 | 0.00 | 91 | 1009.8 |
| 20260506120629 | 23 | 83 | 3.2 | 3.2 | 0.00 | 0.00 | 0.00 | 91 | 1009.8 |
| 20260506120126 | 23 | 102 | 3.2 | 3.2 | 0.00 | 0.00 | 0.00 | 91 | 1009.8 |
| 20260506115625 | 23 | 93 | 3.2 | 3.2 | 0.00 | 0.00 | 0.00 | 91 | 1009.7 |
| 20260506115123 | 23 | 79 | 3.2 | 3.2 | 0.00 | 0.00 | 0.00 | 91 | 1009.6 |
| 20260506114620 | 23 | 171 | 1.6 | 3.2 | 0.00 | 0.00 | 0.00 | 91 | 1009.5 |
| 20260506114118 | 23 | 89 | 0.0 | 3.2 | 0.00 | 0.00 | 0.00 | 91 | 1009.6 |
| 20260506113616 | 23 | 120 | 1.6 | 3.2 | 0.00 | 0.00 | 0.00 | 91 | 1009.7 |
| 20260506113113 | 23 | 74 | 3.2 | 3.2 | 0.00 | 0.00 | 0.00 | 90 | 1009.8 |
| 20260506112609 | 23 | 88 | 3.2 | 3.2 | 0.00 | 0.00 | 0.00 | 90 | 1009.9 |
| 20260506112107 | 23 | 97 | 1.6 | 3.2 | 0.00 | 0.00 | 0.00 | 90 | 1009.8 |
| 20260506111604 | 23 | 84 | 1.6 | 3.2 | 0.00 | 0.00 | 0.00 | 90 | 1009.8 |
| 20260506111102 | 23 | 93 | 1.6 | 3.2 | 0.00 | 0.00 | 0.00 | 90 | 1009.7 |
| 20260506110559 | 23 | 95 | 3.2 | 3.2 | 0.00 | 0.00 | 0.00 | 90 | 1009.6 |
| 20260506110056 | 23 | 73 | 3.2 | 3.2 | 0.00 | 0.00 | 0.00 | 90 | 1009.8 |
| 20260506105552 | 23 | 61 | 4.8 | 4.8 | 0.00 | 0.00 | 0.00 | 90 | 1009.7 |
| 20260506105050 | 23 | 82 | 1.6 | 3.2 | 0.00 | 0.00 | 0.00 | 90 | 1009.6 |
| 20260506104548 | 23 | 85 | 1.6 | 3.2 | 0.00 | 0.00 | 0.00 | 90 | 1009.4 |
| 20260506104045 | 23 | 86 | 1.6 | 3.2 | 0.00 | 0.00 | 0.00 | 90 | 1009.5 |
| 20260506103542 | 23 | 93 | 0.0 | 3.2 | 0.00 | 0.00 | 0.00 | 90 | 1009.4 |
| 20260506103039 | 23 | 69 | 3.2 | 3.2 | 0.00 | 0.00 | 0.00 | 90 | 1009.5 |
| 20260506102537 | 23 | 95 | 0.0 | 3.2 | 0.00 | 0.00 | 0.00 | 90 | 1009.4 |
| 20260506102034 | 23 | 86 | 1.6 | 3.2 | 0.00 | 0.00 | 0.00 | 90 | 1009.4 |
| 20260506101531 | 23 | 71 | 1.6 | 3.2 | 0.00 | 0.00 | 0.00 | 90 | 1009.2 |
| 20260506101028 | 23 | 86 | 1.6 | 4.8 | 0.00 | 0.00 | 0.00 | 90 | 1009.2 |
| 20260506100526 | 23 | 89 | 1.6 | 3.2 | 0.00 | 0.00 | 0.00 | 90 | 1009.2 |
| 20260506100024 | 23 | 91 | 1.6 | 3.2 | 0.00 | 0.00 | 0.00 | 90 | 1009.2 |
| 20260506095523 | 24 | 110 | 1.6 | 3.2 | 0.00 | 0.00 | 0.00 | 90 | 1009.1 |
| 20260506095018 | 23 | 147 | 0.0 | 3.2 | 0.00 | 0.00 | 0.00 | 90 | 1009.1 |
| 20260506094516 | 23 | 88 | 3.2 | 3.2 | 0.00 | 0.00 | 0.00 | 90 | 1008.9 |
| 20260506094014 | 24 | 74 | 1.6 | 3.2 | 0.00 | 0.00 | 0.00 | 90 | 1008.7 |
| 20260506093512 | 24 | 58 | 4.8 | 4.8 | 0.00 | 0.00 | 0.00 | 90 | 1008.8 |
| 20260506093009 | 24 | 88 | 3.2 | 4.8 | 0.00 | 0.00 | 0.00 | 90 | 1008.8 |
| 20260506092507 | 24 | 92 | 1.6 | 3.2 | 0.00 | 0.00 | 0.00 | 90 | 1008.6 |
| 20260506092003 | 24 | 89 | 1.6 | 3.2 | 0.00 | 0.00 | 0.00 | 90 | 1008.8 |
| 20260506091502 | 24 | 93 | 3.2 | 4.8 | 0.00 | 0.00 | 0.00 | 90 | 1008.8 |
| 20260506090958 | 24 | 51 | 3.2 | 4.8 | 0.00 | 0.00 | 0.00 | 90 | 1008.3 |
| 20260506090457 | 24 | 73 | 3.2 | 3.2 | 0.00 | 0.00 | 0.00 | 90 | 1008.3 |
| 20260506085952 | 24 | 77 | 1.6 | 4.8 | 0.00 | 0.00 | 0.00 | 90 | 1008.3 |
| 20260506085450 | 24 | 56 | 3.2 | 3.2 | 0.00 | 0.00 | 0.00 | 90 | 1008.5 |
| 20260506084946 | 24 | 132 | 1.6 | 3.2 | 0.00 | 0.00 | 0.00 | 89 | 1008.3 |
| 20260506084443 | 24 | 113 | 0.0 | 3.2 | 0.00 | 0.00 | 0.00 | 89 | 1008.5 |
| 20260506083939 | 24 | 83 | 0.0 | 3.2 | 0.00 | 0.00 | 0.00 | 89 | 1008.5 |
| 20260506083437 | 24 | 86 | 0.0 | 3.2 | 0.00 | 0.00 | 0.00 | 89 | 1008.5 |
| 20260506082933 | 24 | 134 | 1.6 | 6.4 | 0.00 | 0.00 | 0.00 | 89 | 1008.4 |
| 20260506082431 | 24 | 81 | 1.6 | 3.2 | 0.00 | 0.00 | 0.00 | 89 | 1008.4 |
| 20260506081926 | 24 | 62 | 1.6 | 3.2 | 0.00 | 0.00 | 0.00 | 89 | 1008.5 |
| 20260506081425 | 24 | 149 | 3.2 | 3.2 | 0.00 | 0.00 | 0.00 | 89 | 1008.5 |
| 20260506080921 | 24 | 114 | 0.0 | 4.8 | 0.00 | 0.00 | 0.00 | 89 | 1008.5 |
| 20260506080418 | 24 | 131 | 3.2 | 4.8 | 0.00 | 0.00 | 0.00 | 89 | 1008.4 |
| 20260506073403 | 24 | 54 | 1.6 | 3.2 | 0.00 | 0.00 | 0.00 | 89 | 1008.8 |
| 20260506072859 | 24 | 73 | 3.2 | 4.8 | 0.00 | 0.00 | 0.00 | 89 | 1008.8 |
| 20260506072357 | 24 | 87 | 1.6 | 4.8 | 0.00 | 0.00 | 0.00 | 89 | 1008.7 |
| 20260506071854 | 24 | 106 | 1.6 | 4.8 | 0.00 | 0.00 | 0.00 | 88 | 1008.9 |
| 20260506071352 | 24 | 69 | 3.2 | 3.2 | 0.00 | 0.00 | 0.00 | 88 | 1009.1 |
| 20260506070849 | 24 | 190 | 1.6 | 4.8 | 0.00 | 0.00 | 0.00 | 88 | 1008.9 |
| 20260506070346 | 24 | 87 | 3.2 | 4.8 | 0.00 | 0.00 | 0.00 | 88 | 1008.9 |
| 20260506062323 | 24 | 187 | 1.6 | 4.8 | 0.00 | 0.00 | 0.00 | 88 | 1009.0 |
| 20260506061819 | 24 | 67 | 3.2 | 4.8 | 0.00 | 0.00 | 0.00 | 88 | 1009.1 |
| 20260506061316 | 24 | 68 | 1.6 | 4.8 | 0.00 | 0.00 | 0.00 | 89 | 1008.9 |
| 20260506060814 | 24 | 104 | 1.6 | 3.2 | 0.00 | 0.00 | 0.00 | 88 | 1008.9 |
| 20260506060312 | 24 | 112 | 3.2 | 6.4 | 0.00 | 0.00 | 0.00 | 89 | 1009.0 |
| 20260506051243 | 24 | 80 | 1.6 | 4.8 | 0.00 | 0.00 | 0.00 | 88 | 1009.0 |
| 20260506050741 | 24 | 78 | 1.6 | 4.8 | 0.00 | 0.00 | 0.00 | 88 | 1008.9 |
| 20260506050238 | 25 | 88 | 3.2 | 3.2 | 0.00 | 0.00 | 0.00 | 88 | 1009.1 |
| 20260506044729 | 25 | 103 | 0.0 | 4.8 | 0.00 | 0.00 | 0.00 | 88 | 1009.0 |
| 20260506044226 | 25 | 77 | 3.2 | 3.2 | 0.00 | 0.00 | 0.00 | 88 | 1008.9 |
| 20260506043724 | 25 | 99 | 3.2 | 4.8 | 0.00 | 0.00 | 0.00 | 88 | 1009.2 |
| 20260506043221 | 25 | 103 | 0.0 | 3.2 | 0.00 | 0.00 | 0.00 | 88 | 1009.1 |
| 20260506042720 | 25 | 134 | 0.0 | 3.2 | 0.00 | 0.00 | 0.00 | 88 | 1008.9 |
| 20260506042218 | 25 | 126 | 3.2 | 3.2 | 0.00 | 0.00 | 0.00 | 88 | 1008.9 |
| 20260506041716 | 25 | 101 | 1.6 | 3.2 | 0.00 | 0.00 | 0.00 | 88 | 1009.1 |
| 20260506041213 | 25 | 98 | 3.2 | 3.2 | 0.00 | 0.00 | 0.00 | 87 | 1008.7 |
| 20260506040710 | 25 | 218 | 0.0 | 4.8 | 0.00 | 0.00 | 0.00 | 87 | 1008.9 |
| 20260506040207 | 25 | 141 | 0.0 | 3.2 | 0.00 | 0.00 | 0.00 | 87 | 1008.7 |
| 20260506035703 | 25 | 88 | 3.2 | 3.2 | 0.00 | 0.00 | 0.00 | 87 | 1008.7 |
| 20260506035201 | 25 | 69 | 3.2 | 3.2 | 0.00 | 0.00 | 0.00 | 86 | 1008.6 |
| 20260506034657 | 25 | 105 | 1.6 | 3.2 | 0.00 | 0.00 | 0.00 | 86 | 1008.5 |
| 20260506034155 | 25 | 96 | 3.2 | 4.8 | 0.00 | 0.00 | 0.00 | 86 | 1008.6 |
| 20260506033652 | 25 | 86 | 1.6 | 3.2 | 0.00 | 0.00 | 0.00 | 86 | 1008.5 |
| 20260506033149 | 25 | 62 | 1.6 | 4.8 | 0.00 | 0.00 | 0.00 | 86 | 1008.5 |
| 20260506032646 | 25 | 99 | 0.0 | 3.2 | 0.00 | 0.00 | 0.00 | 86 | 1008.4 |
| 20260506032143 | 25 | 121 | 1.6 | 3.2 | 0.00 | 0.00 | 0.00 | 86 | 1008.3 |
| 20260506031640 | 25 | 55 | 1.6 | 3.2 | 0.00 | 0.00 | 0.00 | 86 | 1008.5 |
| 20260506031136 | 25 | 94 | 1.6 | 3.2 | 0.00 | 0.00 | 0.00 | 86 | 1008.2 |
| 20260506030636 | 25 | 98 | 1.6 | 3.2 | 0.00 | 0.00 | 0.00 | 86 | 1008.1 |
| 20260506030132 | 25 | 59 | 3.2 | 3.2 | 0.00 | 0.00 | 0.00 | 86 | 1008.1 |
| 20260506025629 | 25 | 84 | 3.2 | 3.2 | 0.00 | 0.00 | 0.00 | 85 | 1008.2 |
| 20260506025125 | 25 | 83 | 1.6 | 3.2 | 0.00 | 0.00 | 0.00 | 84 | 1007.9 |
| 20260506024623 | 25 | 178 | 0.0 | 4.8 | 0.00 | 0.00 | 0.00 | 84 | 1007.9 |
| 20260506024118 | 25 | 68 | 1.6 | 6.4 | 0.00 | 0.00 | 0.00 | 84 | 1007.9 |
| 20260506023615 | 25 | 67 | 3.2 | 3.2 | 0.00 | 0.00 | 0.00 | 84 | 1007.6 |
| 20260506023112 | 25 | 92 | 1.6 | 3.2 | 0.00 | 0.00 | 0.00 | 84 | 1007.6 |
| 20260506022610 | 25 | 79 | 0.0 | 1.6 | 0.00 | 0.00 | 0.00 | 84 | 1007.6 |
| 20260506022107 | 25 | 102 | 3.2 | 3.2 | 0.00 | 0.00 | 0.00 | 84 | 1007.3 |
| 20260506021605 | 25 | 93 | 1.6 | 3.2 | 0.00 | 0.00 | 0.00 | 84 | 1007.1 |
| 20260506021101 | 25 | 89 | 3.2 | 3.2 | 0.00 | 0.00 | 0.00 | 83 | 1007.1 |
| 20260506020559 | 25 | 99 | 0.0 | 3.2 | 0.00 | 0.00 | 0.00 | 83 | 1006.9 |
| 20260506020056 | 25 | 102 | 1.6 | 1.6 | 0.00 | 0.00 | 0.00 | 83 | 1007.0 |
| 20260506015554 | 25 | 91 | 1.6 | 1.6 | 0.00 | 0.00 | 0.00 | 82 | 1007.0 |
| 20260506015050 | 25 | 110 | 0.0 | 3.2 | 0.00 | 0.00 | 0.00 | 82 | 1006.8 |
| 20260506014548 | 26 | 80 | 1.6 | 3.2 | 0.00 | 0.00 | 0.00 | 82 | 1006.9 |
| 20260506014043 | 26 | 87 | 1.6 | 3.2 | 0.00 | 0.00 | 0.00 | 82 | 1006.7 |
| 20260506013542 | 26 | 89 | 1.6 | 3.2 | 0.00 | 0.00 | 0.00 | 81 | 1006.8 |
| 20260506013038 | 26 | 91 | 1.6 | 3.2 | 0.00 | 0.00 | 0.00 | 81 | 1006.8 |
| 20260506012534 | 26 | 86 | 1.6 | 3.2 | 0.00 | 0.00 | 0.00 | 81 | 1006.9 |
| 20260506012031 | 26 | 103 | 1.6 | 3.2 | 0.00 | 0.00 | 0.00 | 80 | 1006.6 |
| 20260506011529 | 26 | 87 | 1.6 | 3.2 | 0.00 | 0.00 | 0.00 | 80 | 1006.9 |
| 20260506011025 | 26 | 84 | 1.6 | 3.2 | 0.00 | 0.00 | 0.00 | 79 | 1006.8 |
| 20260506010525 | 26 | 114 | 3.2 | 3.2 | 0.00 | 0.00 | 0.00 | 79 | 1006.9 |
| 20260506010020 | 27 | 89 | 1.6 | 3.2 | 0.00 | 0.00 | 0.00 | 79 | 1006.8 |
| 20260506005518 | 27 | 87 | 1.6 | 3.2 | 0.00 | 0.00 | 0.00 | 78 | 1006.7 |
| 20260506005013 | 27 | 108 | 1.6 | 3.2 | 0.00 | 0.00 | 0.00 | 77 | 1006.8 |
| 20260506004511 | 27 | 67 | 0.0 | 1.6 | 0.00 | 0.00 | 0.00 | 77 | 1006.8 |
| 20260506004008 | 27 | 92 | 1.6 | 3.2 | 0.00 | 0.00 | 0.00 | 76 | 1006.9 |
| 20260506003504 | 27 | 94 | 0.0 | 3.2 | 0.00 | 0.00 | 0.00 | 77 | 1006.8 |
| 20260506003000 | 27 | 71 | 0.0 | 1.6 | 0.00 | 0.00 | 0.00 | 75 | 1006.9 |
| 20260506002456 | 27 | 150 | 0.0 | 3.2 | 0.00 | 0.00 | 0.00 | 73 | 1006.9 |
| 20260506001952 | 27 | 140 | 1.6 | 3.2 | 0.00 | 0.00 | 0.00 | 74 | 1006.9 |
| 20260506001449 | 28 | 61 | 3.2 | 3.2 | 0.00 | 0.00 | 0.00 | 73 | 1006.7 |
| 20260506000946 | 28 | 61 | 1.6 | 3.2 | 0.00 | 0.00 | 0.00 | 74 | 1006.5 |
| 20260506000445 | 28 | 114 | 1.6 | 4.8 | 0.00 | 0.00 | 0.00 | 73 | 1006.7 |
| 20260505235940 | 28 | 115 | 1.6 | 3.2 | 0.00 | 0.00 | 0.00 | 72 | 1006.4 |
| 20260505235438 | 28 | 83 | 1.6 | 3.2 | 0.00 | 0.00 | 0.00 | 72 | 1006.5 |
| 20260505234935 | 28 | 60 | 1.6 | 4.8 | 0.00 | 0.00 | 0.00 | 71 | 1006.5 |
| 20260505234433 | 28 | 96 | 0.0 | 3.2 | 0.00 | 0.00 | 0.00 | 71 | 1006.5 |
| 20260505233929 | 28 | 134 | 0.0 | 3.2 | 0.00 | 0.00 | 0.00 | 70 | 1006.3 |
| 20260505233427 | 28 | 42 | 6.4 | 6.4 | 0.00 | 0.00 | 0.00 | 71 | 1006.4 |
| 20260505232924 | 28 | 72 | 1.6 | 4.8 | 0.00 | 0.00 | 0.00 | 70 | 1006.4 |
| 20260505232422 | 28 | 100 | 3.2 | 6.4 | 0.00 | 0.00 | 0.00 | 69 | 1006.4 |
| 20260505231918 | 28 | 68 | 6.4 | 6.4 | 0.00 | 0.00 | 0.00 | 68 | 1006.3 |
| 20260505231416 | 28 | 99 | 3.2 | 3.2 | 0.00 | 0.00 | 0.00 | 69 | 1006.4 |
| 20260505230914 | 28 | 83 | 3.2 | 4.8 | 0.00 | 0.00 | 0.00 | 68 | 1006.5 |
| 20260505230412 | 28 | 43 | 0.0 | 3.2 | 0.00 | 0.00 | 0.00 | 68 | 1006.3 |
| 20260505225908 | 28 | 121 | 3.2 | 3.2 | 0.00 | 0.00 | 0.00 | 68 | 1006.2 |
| 20260505225405 | 29 | 63 | 3.2 | 3.2 | 0.00 | 0.00 | 0.00 | 69 | 1006.2 |
| 20260505224900 | 29 | 121 | 1.6 | 4.8 | 0.00 | 0.00 | 0.00 | 68 | 1006.3 |
| 20260505224358 | 29 | 202 | 1.6 | 3.2 | 0.00 | 0.00 | 0.00 | 68 | 1006.4 |
| 20260505223854 | 29 | 61 | 4.8 | 4.8 | 0.00 | 0.00 | 0.00 | 68 | 1006.1 |
| 20260505223351 | 29 | 92 | 3.2 | 3.2 | 0.00 | 0.00 | 0.00 | 69 | 1006.3 |
| 20260505222847 | 29 | 190 | 3.2 | 4.8 | 0.00 | 0.00 | 0.00 | 68 | 1006.2 |
| 20260505222344 | 29 | 124 | 1.6 | 4.8 | 0.00 | 0.00 | 0.00 | 68 | 1006.0 |
| 20260505221841 | 29 | 81 | 3.2 | 6.4 | 0.00 | 0.00 | 0.00 | 68 | 1006.2 |
| 20260505221338 | 30 | 67 | 3.2 | 4.8 | 0.00 | 0.00 | 0.00 | 66 | 1006.3 |
| 20260505220835 | 30 | 183 | 1.6 | 6.4 | 0.00 | 0.00 | 0.00 | 66 | 1006.3 |
| 20260505220331 | 30 | 86 | 0.0 | 6.4 | 0.00 | 0.00 | 0.00 | 66 | 1006.2 |
| 20260505215830 | 30 | 24 | 4.8 | 6.4 | 0.00 | 0.00 | 0.00 | 65 | 1006.3 |